SCP
0 0 0 0 0 0 0 0 0 0 0 0 0 -0 0 0 0 0 0 0 -0 -1 -0 -0 -0 -1 -1 -1 -1 -1 -1 -1 -0 -0 -0 -0 -0 -0 -0 0 0 0 0 0 0 0 0 0 -0
0 0 0 0 0 0 0 0 0 0 0 0 0 -0 0 0 0 0 0 0 -0 -1 -0 -0 -0 -1 -1 -0 -0 -0 -0 -0 -0 -0 -0 -0 -0 -0 -0 0 0 0 0 0 0 0 0 0 -0
0 0 0 0 0 0 0 0 0 0 0 0 0 0 0 0 0 0 0 -0 -0 -0 -0 -0 -1 -0 -1 -0 -0 -0 -0 -0 -0 -0 -0 -0 -0 -0 -0 0 0 0 0 0 0 0 -0 -0 -0
0 0 0 0 0 0 0 0 0 0 0 0 0 0 0 0 0 -0 -0 -0 -0 -0 -0 -0 -0 -0 -0 -0 -0 -0 -0 -0 -0 -0 -0 -0 -0 0 0 0 0 0 0 0 -0 -0 -0 -0 -0
0 0 0 0 0 0 0 0 0 0 0 0 0 0 0 0 0 0 -0 -0 -0 -0 -0 -0 -0 -0 -0 -0 -0 -0 -0 -0 -0 -0 -0 -0 -0 0 0 0 0 0 0 -0 -0 -0 -0 -0 -0
0 0 0 0 0 0 0 0 0 0 0 0 0 0 0 0 0 0 0 -0 -0 0 -0 -0 -0 -0 -0 -0 -0 -0 -0 -0 0 0 0 0 -0 -0 0 0 0 0 -0 -0 -0 -0 -0 -0 -0
0 0 0 0 0 0 0 0 0 0 0 0 0 0 0 0 -0 0 0 0 0 0 0 0 -0 -0 -0 -0 -0 0 0 0 0 0 0 0 0 -0 -0 -0 -0 -0 -0 -0 -0 -0 -0 -0 0
0 0 0 0 0 0 0 0 0 0 0 0 0 0 0 0 0 0 0 0 0 0 0 0 0 -0 -0 0 0 0 0 0 0 0 0 0 0 0 -0 -0 -0 -0 -0 -0 -0 -0 -0 0 0
0 0 0 0 0 0 0 0 0 0 0 0 0 0 0 -0 -0 0 1 0 0 0 0 0 -0 -0 0 0 0 -0 -0 0 0 0 0 0 0 0 -0 -0 -0 -0 -0 -0 0 0 0 0 0
0 0 0 0 0 0 0 0 0 0 0 0 0 0 -1 -1 -0 0 0 0 0 0 0 0 0 0 0 0 0 0 0 0 0 0 0 0 0 0 -0 0 0 0 0 0 0 0 0 0 0
0 0 0 0 0 0 0 0 0 0 0 0 0 0 -0 -2 -1 0 0 1 0 0 0 0 0 0 0 0 0 0 0 0 0 0 0 0 0 0 0 0 0 0 0 0 0 0 0 0 0
0 0 0 0 0 0 0 0 0 0 0 0 0 0 0 -1 -1 -0 1 1 0 0 0 0 0 0 0 0 0 0 0 0 0 0 0 0 0 0 0 0 0 0 0 0 0 0 0 0 0
0 0 0 0 0 0 0 0 0 0 0 0 0 0 0 0 0 0 0 1 1 1 1 0 0 0 0 0 0 0 0 0 0 0 0 0 0 0 0 0 0 0 0 0 0 0 0 0 0
0 0 0 0 0 0 0 0 0 0 -0 -0 0 0 0 0 0 0 1 1 1 1 1 1 1 1 0 0 0 0 0 0 0 0 0 0 0 0 0 0 0 0 0 0 0 0 0 0 0
0 0 0 0 0 0 0 0 0 0 0 0 0 0 0 0 0 0 0 1 1 1 1 1 1 1 1 0 0 0 0 0 0 0 0 0 0 0 0 0 0 0 0 0 0 0 0 0 0
0 0 0 0 0 0 0 0 0 0 0 0 0 0 0 0 0 0 0 1 1 1 2 2 1 1 1 1 1 0 0 0 0 0 0 0 0 0 0 0 0 0 0 0 0 0 0 0 0
0 0 0 0 0 0 0 0 0 0 0 0 0 0 0 0 0 0 0 1 1 2 2 1 2 1 1 1 1 1 1 0 0 0 0 0 0 0 0 0 0 0 0 0 0 0 0 0 0
0 0 0 0 0 0 0 0 0 0 0 0 0 0 0 0 0 0 -0 -0 1 2 2 3 3 2 2 2 1 1 1 0 0 0 0 0 0 0 0 0 0 0 0 0 0 0 0 0 1
0 0 0 0 0 0 0 0 0 0 0 0 0 0 0 0 0 0 0 0 1 2 3 3 3 3 3 2 1 1 0 0 0 0 0 0 0 0 0 0 0 0 0 0 1 1 1 1 1
0 0 0 0 0 0 0 0 0 0 0 0 0 0 0 0 0 0 0 0 1 3 3 3 3 4 3 2 1 1 1 0 0 0 0 0 0 0 0 0 0 0 0 1 1 1 1 2 1
0 0 0 0 0 0 0 0 0 0 0 0 0 0 0 0 0 0 0 0 1 2 3 3 3 4 4 3 3 1 1 1 0 0 0 0 0 1 0 1 1 0 0 0 1 1 2 3 1
0 0 0 0 0 0 0 0 0 0 0 0 0 0 0 0 0 0 0 0 1 2 2 2 3 4 4 4 3 1 1 0 0 0 0 0 0 0 1 1 1 1 1 1 1 1 2 2 3
0 0 0 0 0 0 0 0 0 0 0 0 0 0 0 0 0 0 0 0 0 1 3 3 3 2 3 3 2 2 1 1 1 1 1 1 1 0 0 1 2 2 2 2 2 2 2 1 1
0 0 0 0 0 0 0 0 0 0 0 0 0 0 0 0 0 0 0 0 0 0 2 3 2 3 3 2 3 2 2 3 3 2 1 1 1 1 1 2 2 1 2 2 2 0 0 0 0
0 0 0 0 0 0 0 0 0 0 0 0 0 0 0 0 0 0 0 0 0 0 1 3 2 3 3 2 3 3 3 3 3 2 2 3 2 2 2 2 2 3 1 0 0 0 0 -0 -0
0 0 0 0 0 0 0 0 0 -0 0 0 0 0 0 0 0 0 0 0 0 0 0 2 3 3 2 3 4 4 4 4 3 3 2 2 2 4 4 2 2 1 0 0 0 0 -0 -0 0
0 0 0 0 0 0 0 -0 0 0 0 0 0 0 0 0 0 0 0 0 0 0 0 1 2 3 3 3 5 5 4 4 4 4 4 5 3 2 2 3 0 0 0 0 -0 -0 0 0 0
0 0 0 0 0 0 0 0 0 0 0 -0 0 0 0 0 0 0 0 0 0 0 0 0 1 1 2 3 4 4 4 4 4 5 5 3 2 2 2 0 0 0 0 0 0 0 0 0 0
0 0 0 0 0 0 0 0 0 0 0 0 0 0 0 0 0 0 0 0 0 0 0 0 1 1 2 2 3 3 3 3 5 5 4 3 3 2 1 0 0 0 0 0 0 0 0 0 0
0 0 0 0 0 0 0 0 0 -0 0 0 0 0 0 0 0 0 0 0 0 0 0 0 0 1 2 3 3 4 4 5 6 5 4 2 2 1 1 0 0 0 0 0 0 0 0 0 0
Wind_Speed_500mb
14 11 8 6 8 5 10 10 5 9 8 3 4 11 10 11 7 10 13 47 54 72 72 67 62 59 56 52 51 56 54 49 44 37 30 27 30 35 41 43 42 39 39 38 37 32 26 25 26
12 10 12 4 11 17 20 13 18 20 5 12 15 14 14 13 13 11 20 46 57 71 73 69 63 59 58 55 53 54 52 48 42 35 30 30 34 38 41 40 40 38 36 36 33 28 25 26 26
13 13 8 7 10 31 25 16 21 18 19 9 9 7 7 5 6 6 16 47 68 73 71 66 62 59 58 56 55 53 50 46 41 35 33 35 37 40 40 38 38 36 35 34 30 27 27 27 26
16 11 2 13 33 31 41 12 12 7 7 4 8 14 10 15 9 8 18 48 73 74 70 64 60 59 57 57 55 53 50 45 40 38 40 40 40 40 38 36 36 35 34 31 29 29 27 26 24
25 7 10 15 38 21 15 20 13 10 8 10 18 16 14 15 10 13 30 52 77 76 71 65 60 57 56 55 55 53 50 46 44 44 45 43 41 39 36 35 34 34 33 31 30 29 27 24 20
13 5 11 35 38 32 24 25 23 24 19 19 17 15 7 7 8 20 47 63 75 77 74 67 61 55 52 52 53 52 50 48 47 49 47 44 41 38 36 35 34 33 32 31 29 27 24 21 18
10 9 24 27 30 37 30 17 26 34 34 33 20 17 4 4 4 29 61 68 76 77 75 72 65 58 53 50 50 50 50 50 51 51 48 44 40 38 36 33 32 32 31 30 27 24 22 19 18
11 7 18 18 26 34 13 18 29 24 23 14 17 10 6 17 13 33 60 69 80 81 77 76 71 64 58 52 47 49 52 52 52 52 48 44 40 38 35 33 31 31 30 28 26 23 21 19 17
17 14 29 32 32 24 5 19 18 16 29 18 12 8 14 15 19 41 57 59 76 83 83 80 76 70 64 57 51 48 52 53 53 53 50 46 44 40 37 34 32 31 29 28 26 25 23 21 18
20 18 34 10 24 16 28 20 5 8 18 22 17 8 11 4 24 44 64 69 77 86 87 84 81 76 69 62 59 55 55 57 58 58 55 50 46 42 39 35 32 30 28 27 28 27 25 22 20
18 33 28 16 21 27 40 40 21 21 30 29 21 8 4 3 24 39 52 66 79 88 86 90 86 80 75 72 68 63 61 62 62 60 58 53 49 45 42 39 36 32 30 29 29 27 25 22 20
18 24 38 11 23 41 34 28 28 41 55 30 20 18 17 19 21 32 47 54 64 80 92 92 90 86 82 78 72 69 67 63 63 64 60 55 52 48 44 40 35 34 32 30 27 24 22 19 17
24 30 20 23 34 45 43 42 29 50 39 34 40 53 44 35 31 30 38 51 58 68 87 95 95 92 88 82 77 73 70 65 62 61 58 57 53 48 44 40 38 35 32 29 26 23 21 20 20
4 18 29 37 46 43 36 40 34 34 31 49 58 62 65 58 55 44 43 54 70 71 84 97 99 96 92 87 82 77 72 68 64 60 56 55 53 51 46 43 40 36 32 29 27 23 19 15 14
13 22 24 25 22 20 19 43 58 59 62 52 31 33 49 52 50 57 56 59 71 87 84 98 99 98 96 92 85 80 76 71 67 62 57 53 50 49 47 47 44 40 35 32 30 26 21 18 16
9 11 19 4 17 21 33 45 9 13 46 63 61 56 53 46 41 45 50 58 69 77 94 95 98 101 98 94 88 84 80 76 70 65 61 56 51 47 46 46 44 41 40 39 35 32 26 22 22
10 23 17 10 17 6 33 23 3 16 10 26 39 48 54 58 47 44 46 51 66 79 91 92 98 99 95 91 86 82 77 73 71 68 66 60 55 51 49 47 42 40 41 42 40 35 29 22 17
19 22 19 28 8 21 29 33 28 36 26 28 32 30 37 53 45 41 39 48 59 69 82 87 94 98 95 92 88 82 80 79 75 69 65 61 59 56 52 47 44 44 43 40 36 31 25 19 14
36 34 35 28 24 34 41 44 41 41 51 45 42 43 44 47 44 37 41 50 59 71 78 84 92 98 99 99 93 89 85 80 74 68 66 65 62 59 51 49 48 48 45 40 32 28 25 18 17
40 39 39 34 26 31 39 49 39 39 43 49 56 57 55 58 54 46 42 45 66 70 77 85 79 92 98 98 92 85 81 76 70 66 64 64 61 54 53 51 48 48 45 38 31 28 24 24 23
41 41 35 37 34 31 34 51 45 38 51 58 60 63 60 62 62 50 45 45 57 72 81 85 81 79 86 92 93 86 78 75 72 70 68 64 59 56 52 48 46 44 44 38 31 27 28 25 22
39 39 35 36 27 24 3 23 24 20 29 32 55 63 68 67 69 57 56 49 51 64 73 79 88 86 81 85 91 90 89 84 79 73 64 61 60 56 50 44 39 37 39 38 37 36 26 22 24
33 28 32 31 27 30 35 21 27 19 33 37 32 50 61 68 69 61 57 49 49 53 68 77 91 92 91 90 83 87 90 84 76 63 59 59 55 56 47 45 43 40 37 38 36 30 26 26 23
18 22 27 23 22 20 46 29 29 28 34 33 34 49 56 58 60 56 59 50 52 53 58 72 86 91 90 92 91 87 87 89 82 58 60 59 56 52 51 48 46 40 37 32 29 6 18 36 26
19 9 11 15 14 22 16 21 40 29 38 36 36 45 41 38 37 43 51 52 52 56 54 64 76 86 90 90 92 89 89 92 84 63 57 57 55 53 55 51 44 39 36 24 6 10 1 11 34
26 18 11 6 11 10 10 19 23 32 47 51 36 37 31 35 37 29 29 43 49 56 63 65 70 72 76 79 79 83 86 87 80 68 59 57 55 53 55 46 36 32 28 21 16 5 10 28 40
17 20 31 10 12 11 12 31 37 38 42 35 35 41 44 41 38 36 29 36 44 43 62 71 70 68 69 73 74 76 81 84 81 73 62 62 53 48 47 42 37 31 17 8 2 3 17 52 38
25 11 13 8 11 13 15 29 22 20 17 14 25 27 27 22 23 26 29 33 32 44 48 66 76 80 75 72 72 72 72 76 79 74 72 57 49 46 50 52 41 39 16 10 12 22 42 39 30
16 12 13 8 12 10 11 7 6 18 25 6 5 9 9 13 13 18 23 31 39 35 39 53 71 74 79 84 85 79 76 73 73 74 67 54 47 46 46 45 50 37 34 24 22 38 46 31 24
22 13 30 8 16 17 17 18 8 7 12 11 14 22 23 27 23 20 22 24 33 42 40 43 59 70 75 84 84 82 78 67 70 70 64 51 46 40 41 42 44 31 42 39 26 46 36 28 19
Wind_Direction_500mb
234 230 201 176 235 252 236 217 285 215 196 174 289 223 234 294 202 290 329 176 181 177 175 173 174 177 178 177 171 168 168 168 167 168 176 170 162 160 158 157 158 155 155 154 158 158 154 149 144
214 192 174 177 233 230 242 195 213 238 219 310 283 229 247 247 243 277 156 176 181 179 175 174 174 176 178 179 176 171 170 171 175 179 181 170 163 160 159 159 162 161 158 159 160 161 159 154 149
202 186 186 213 221 231 244 188 217 255 273 303 300 247 286 205 214 228 196 180 180 180 176 175 174 176 178 181 179 178 177 177 180 181 176 169 163 161 160 161 163 165 163 165 167 167 163 158 152
187 174 142 232 223 239 242 199 204 191 262 192 8 304 294 255 294 229 208 182 179 180 178 176 176 177 180 182 182 182 181 182 183 180 172 168 165 163 162 161 161 165 168 171 171 168 165 162 158
184 183 214 235 240 247 239 238 201 224 268 283 335 298 288 260 264 232 190 180 179 179 179 178 179 179 182 183 184 184 184 183 182 177 170 168 167 166 165 164 165 167 169 172 171 170 169 167 166
167 174 219 232 236 242 247 238 253 254 263 273 293 284 264 292 289 204 188 177 179 181 180 179 179 180 182 181 183 183 184 182 179 174 171 172 171 170 172 171 171 172 172 175 176 175 173 174 173
214 199 230 247 248 252 242 211 228 249 255 252 252 268 250 352 227 191 180 179 179 183 183 181 180 180 182 183 182 183 184 182 178 174 175 175 174 176 178 178 176 176 178 180 182 180 179 182 186
200 225 229 232 235 255 240 211 233 212 249 216 197 226 235 309 258 191 181 180 181 184 186 184 182 181 181 184 184 183 184 182 179 178 178 179 180 181 183 181 181 182 184 184 186 187 186 187 194
172 227 236 231 215 224 256 240 229 225 241 226 204 240 304 324 204 182 180 179 182 187 188 188 185 184 184 183 183 183 185 183 183 183 183 183 185 184 186 184 183 183 185 184 185 189 191 195 206
201 226 234 230 242 246 248 249 237 240 221 226 232 273 340 338 197 191 188 185 185 189 190 191 191 188 186 187 185 184 185 186 186 189 187 189 189 188 189 186 185 182 183 182 186 193 199 206 220
212 238 236 221 237 236 253 251 237 246 248 247 248 272 176 282 201 200 201 196 191 191 192 194 194 193 192 191 190 188 189 189 191 194 192 192 191 191 191 190 188 184 184 186 192 199 209 219 228
237 237 244 242 242 252 254 267 256 243 244 249 256 256 283 230 223 216 211 204 198 195 198 197 198 197 196 196 196 195 194 193 194 196 197 196 196 196 196 195 193 193 194 195 200 206 215 223 235
237 246 247 246 255 259 263 258 261 259 257 254 260 264 264 253 244 238 228 212 204 203 200 202 201 200 200 201 201 200 201 200 200 201 201 201 203 203 201 201 201 200 200 202 204 210 221 233 241
215 250 263 263 264 260 264 263 254 258 271 251 250 255 260 255 243 242 223 218 214 206 204 204 204 203 203 204 206 206 207 206 206 207 205 205 207 210 210 209 210 208 207 209 213 217 216 219 226
278 274 271 252 250 242 244 261 250 259 252 258 251 247 249 250 247 237 233 237 228 219 207 206 208 207 207 207 209 210 211 212 212 213 212 211 211 212 214 217 218 217 215 217 221 219 223 233 244
258 260 262 222 225 230 201 255 189 0 237 239 245 248 249 250 250 229 232 240 234 217 211 209 209 209 209 211 211 212 214 216 217 218 217 217 217 217 218 219 220 220 221 222 221 223 230 239 254
229 253 233 263 210 218 212 252 131 33 353 258 258 251 249 252 253 244 229 229 230 227 219 211 212 213 213 215 217 218 221 224 223 222 222 221 221 222 224 225 223 221 222 223 223 227 232 245 258
242 237 244 246 236 253 253 251 271 285 303 299 300 293 272 263 253 253 233 228 230 231 224 221 218 216 215 216 218 221 223 224 227 228 227 226 226 227 227 227 224 223 220 216 217 224 237 246 265
254 262 265 260 264 283 277 277 271 272 281 278 277 278 280 278 275 262 251 225 226 227 225 221 220 218 216 216 216 218 221 224 225 226 227 227 227 228 228 229 226 224 221 221 225 227 238 245 257
253 258 262 271 266 258 271 270 269 266 264 265 269 267 270 275 274 270 261 228 220 225 225 223 224 222 219 219 220 221 223 225 226 226 227 227 228 230 231 232 231 226 220 215 219 219 225 242 263
248 250 258 263 274 268 276 276 268 257 252 245 245 253 258 259 266 268 263 251 220 222 223 221 220 224 221 221 222 221 223 227 226 226 225 225 226 228 232 233 231 227 220 216 216 223 240 258 281
254 241 252 259 258 264 308 282 277 262 259 240 237 234 238 245 255 258 258 260 230 224 225 222 221 220 220 222 222 221 220 219 220 223 224 224 225 227 227 221 215 213 215 212 226 246 254 281 294
264 273 249 244 246 258 250 264 273 255 252 247 230 237 238 234 236 243 248 253 252 233 225 223 223 221 219 221 222 221 223 224 225 221 221 222 222 222 218 211 209 206 211 225 238 252 271 283 299
247 306 247 241 246 246 244 233 265 252 252 250 241 236 234 237 234 234 242 241 247 236 224 222 222 223 221 221 221 223 223 226 227 218 220 220 224 220 215 215 218 220 223 239 254 305 345 313 336
230 184 223 213 214 244 255 230 247 259 247 254 257 247 235 239 241 239 234 234 227 227 212 216 220 221 221 222 222 225 224 226 228 218 221 218 227 222 220 221 225 225 233 218 267 347 253 250 295
217 222 245 231 208 234 197 228 248 238 247 250 243 247 248 250 249 240 233 225 227 223 220 219 222 219 219 222 223 224 227 228 229 225 224 224 225 222 219 218 228 222 165 128 337 103 235 283 267
233 226 251 269 285 292 242 255 272 263 261 249 244 246 247 252 253 253 255 233 228 222 222 222 222 224 227 225 224 222 223 226 229 228 223 223 226 226 215 214 205 157 126 134 122 237 261 260 256
227 244 202 182 207 230 248 261 253 288 310 240 241 246 261 267 265 265 251 244 234 228 216 221 224 225 228 231 227 223 221 223 227 226 221 220 216 220 218 222 207 173 204 264 173 261 249 237 238
202 221 227 230 237 253 272 260 275 286 269 304 358 52 357 351 321 286 266 248 244 233 225 218 218 220 221 224 225 224 224 221 217 220 217 210 206 208 222 225 203 207 232 208 163 240 230 225 248
292 259 223 230 198 233 281 257 316 15 37 28 342 319 320 318 304 297 289 254 237 234 226 221 217 215 217 222 221 219 219 211 212 207 210 206 203 204 197 209 204 212 181 180 181 215 218 232 242
Wind_Speed_850mb
14 11 8 6 8 5 10 10 5 9 8 3 4 11 10 11 7 10 13 47 54 72 72 67 62 59 56 52 51 56 54 49 44 37 30 27 30 35 41 43 42 39 39 38 37 32 26 25 26
12 10 12 4 11 17 20 13 18 20 5 12 15 14 14 13 13 11 20 46 57 71 73 69 63 59 58 55 53 54 52 48 42 35 30 30 34 38 41 40 40 38 36 36 33 28 25 26 26
13 13 8 7 10 31 25 16 21 18 19 9 9 7 7 5 6 6 16 47 68 73 71 66 62 59 58 56 55 53 50 46 41 35 33 35 37 40 40 38 38 36 35 34 30 27 27 27 26
16 11 2 13 33 31 41 12 12 7 7 4 8 14 10 15 9 8 18 48 73 74 70 64 60 59 57 57 55 53 50 45 40 38 40 40 40 40 38 36 36 35 34 31 29 29 27 26 24
25 7 10 15 38 21 15 20 13 10 8 10 18 16 14 15 10 13 30 52 77 76 71 65 60 57 56 55 55 53 50 46 44 44 45 43 41 39 36 35 34 34 33 31 30 29 27 24 20
13 5 11 35 38 32 24 25 23 24 19 19 17 15 7 7 8 20 47 63 75 77 74 67 61 55 52 52 53 52 50 48 47 49 47 44 41 38 36 35 34 33 32 31 29 27 24 21 18
10 9 24 27 30 37 30 17 26 34 34 33 20 17 4 4 4 29 61 68 76 77 75 72 65 58 53 50 50 50 50 50 51 51 48 44 40 38 36 33 32 32 31 30 27 24 22 19 18
11 7 18 18 26 34 13 18 29 24 23 14 17 10 6 17 13 33 60 69 80 81 77 76 71 64 58 52 47 49 52 52 52 52 48 44 40 38 35 33 31 31 30 28 26 23 21 19 17
17 14 29 32 32 24 5 19 18 16 29 18 12 8 14 15 19 41 57 59 76 83 83 80 76 70 64 57 51 48 52 53 53 53 50 46 44 40 37 34 32 31 29 28 26 25 23 21 18
20 18 34 10 24 16 28 20 5 8 18 22 17 8 11 4 24 44 64 69 77 86 87 84 81 76 69 62 59 55 55 57 58 58 55 50 46 42 39 35 32 30 28 27 28 27 25 22 20
18 33 28 16 21 27 40 40 21 21 30 29 21 8 4 3 24 39 52 66 79 88 86 90 86 80 75 72 68 63 61 62 62 60 58 53 49 45 42 39 36 32 30 29 29 27 25 22 20
18 24 38 11 23 41 34 28 28 41 55 30 20 18 17 19 21 32 47 54 64 80 92 92 90 86 82 78 72 69 67 63 63 64 60 55 52 48 44 40 35 34 32 30 27 24 22 19 17
24 30 20 23 34 45 43 42 29 50 39 34 40 53 44 35 31 30 38 51 58 68 87 95 95 92 88 82 77 73 70 65 62 61 58 57 53 48 44 40 38 35 32 29 26 23 21 20 20
4 18 29 37 46 43 36 40 34 34 31 49 58 62 65 58 55 44 43 54 70 71 84 97 99 96 92 87 82 77 72 68 64 60 56 55 53 51 46 43 40 36 32 29 27 23 19 15 14
13 22 24 25 22 20 19 43 58 59 62 52 31 33 49 52 50 57 56 59 71 87 84 98 99 98 96 92 85 80 76 71 67 62 57 53 50 49 47 47 44 40 35 32 30 26 21 18 16
9 11 19 4 17 21 33 45 9 13 46 63 61 56 53 46 41 45 50 58 69 77 94 95 98 101 98 94 88 84 80 76 70 65 61 56 51 47 46 46 44 41 40 39 35 32 26 22 22
10 23 17 10 17 6 33 23 3 16 10 26 39 48 54 58 47 44 46 51 66 79 91 92 98 99 95 91 86 82 77 73 71 68 66 60 55 51 49 47 42 40 41 42 40 35 29 22 17
19 22 19 28 8 21 29 33 28 36 26 28 32 30 37 53 45 41 39 48 59 69 82 87 94 98 95 92 88 82 80 79 75 69 65 61 59 56 52 47 44 44 43 40 36 31 25 19 14
36 34 35 28 24 34 41 44 41 41 51 45 42 43 44 47 44 37 41 50 59 71 78 84 92 98 99 99 93 89 85 80 74 68 66 65 62 59 51 49 48 48 45 40 32 28 25 18 17
40 39 39 34 26 31 39 49 39 39 43 49 56 57 55 58 54 46 42 45 66 70 77 85 79 92 98 98 92 85 81 76 70 66 64 64 61 54 53 51 48 48 45 38 31 28 24 24 23
41 41 35 37 34 31 34 51 45 38 51 58 60 63 60 62 62 50 45 45 57 72 81 85 81 79 86 92 93 86 78 75 72 70 68 64 59 56 52 48 46 44 44 38 31 27 28 25 22
39 39 35 36 27 24 3 23 24 20 29 32 55 63 68 67 69 57 56 49 51 64 73 79 88 86 81 85 91 90 89 84 79 73 64 61 60 56 50 44 39 37 39 38 37 36 26 22 24
33 28 32 31 27 30 35 21 27 19 33 37 32 50 61 68 69 61 57 49 49 53 68 77 91 92 91 90 83 87 90 84 76 63 59 59 55 56 47 45 43 40 37 38 36 30 26 26 23
18 22 27 23 22 20 46 29 29 28 34 33 34 49 56 58 60 56 59 50 52 53 58 72 86 91 90 92 91 87 87 89 82 58 60 59 56 52 51 48 46 40 37 32 29 6 18 36 26
19 9 11 15 14 22 16 21 40 29 38 36 36 45 41 38 37 43 51 52 52 56 54 64 76 86 90 90 92 89 89 92 84 63 57 57 55 53 55 51 44 39 36 24 6 10 1 11 34
26 18 11 6 11 10 10 19 23 32 47 51 36 37 31 35 37 29 29 43 49 56 63 65 70 72 76 79 79 83 86 87 80 68 59 57 55 53 55 46 36 32 28 21 16 5 10 28 40
17 20 31 10 12 11 12 31 37 38 42 35 35 41 44 41 38 36 29 36 44 43 62 71 70 68 69 73 74 76 81 84 81 73 62 62 53 48 47 42 37 31 17 8 2 3 17 52 38
25 11 13 8 11 13 15 29 22 20 17 14 25 27 27 22 23 26 29 33 32 44 48 66 76 80 75 72 72 72 72 76 79 74 72 57 49 46 50 52 41 39 16 10 12 22 42 39 30
16 12 13 8 12 10 11 7 6 18 25 6 5 9 9 13 13 18 23 31 39 35 39 53 71 74 79 84 85 79 76 73 73 74 67 54 47 46 46 45 50 37 34 24 22 38 46 31 24
22 13 30 8 16 17 17 18 8 7 12 11 14 22 23 27 23 20 22 24 33 42 40 43 59 70 75 84 84 82 78 67 70 70 64 51 46 40 41 42 44 31 42 39 26 46 36 28 19
Wind_Direction_850mb
234 230 201 176 235 252 236 217 285 215 196 174 289 223 234 294 202 290 329 176 181 177 175 173 174 177 178 177 171 168 168 168 167 168 176 170 162 160 158 157 158 155 155 154 158 158 154 149 144
214 192 174 177 233 230 242 195 213 238 219 310 283 229 247 247 243 277 156 176 181 179 175 174 174 176 178 179 176 171 170 171 175 179 181 170 163 160 159 159 162 161 158 159 160 161 159 154 149
202 186 186 213 221 231 244 188 217 255 273 303 300 247 286 205 214 228 196 180 180 180 176 175 174 176 178 181 179 178 177 177 180 181 176 169 163 161 160 161 163 165 163 165 167 167 163 158 152
187 174 142 232 223 239 242 199 204 191 262 192 8 304 294 255 294 229 208 182 179 180 178 176 176 177 180 182 182 182 181 182 183 180 172 168 165 163 162 161 161 165 168 171 171 168 165 162 158
184 183 214 235 240 247 239 238 201 224 268 283 335 298 288 260 264 232 190 180 179 179 179 178 179 179 182 183 184 184 184 183 182 177 170 168 167 166 165 164 165 167 169 172 171 170 169 167 166
167 174 219 232 236 242 247 238 253 254 263 273 293 284 264 292 289 204 188 177 179 181 180 179 179 180 182 181 183 183 184 182 179 174 171 172 171 170 172 171 171 172 172 175 176 175 173 174 173
214 199 230 247 248 252 242 211 228 249 255 252 252 268 250 352 227 191 180 179 179 183 183 181 180 180 182 183 182 183 184 182 178 174 175 175 174 176 178 178 176 176 178 180 182 180 179 182 186
200 225 229 232 235 255 240 211 233 212 249 216 197 226 235 309 258 191 181 180 181 184 186 184 182 181 181 184 184 183 184 182 179 178 178 179 180 181 183 181 181 182 184 184 186 187 186 187 194
172 227 236 231 215 224 256 240 229 225 241 226 204 240 304 324 204 182 180 179 182 187 188 188 185 184 184 183 183 183 185 183 183 183 183 183 185 184 186 184 183 183 185 184 185 189 191 195 206
201 226 234 230 242 246 248 249 237 240 221 226 232 273 340 338 197 191 188 185 185 189 190 191 191 188 186 187 185 184 185 186 186 189 187 189 189 188 189 186 185 182 183 182 186 193 199 206 220
212 238 236 221 237 236 253 251 237 246 248 247 248 272 176 282 201 200 201 196 191 191 192 194 194 193 192 191 190 188 189 189 191 194 192 192 191 191 191 190 188 184 184 186 192 199 209 219 228
237 237 244 242 242 252 254 267 256 243 244 249 256 256 283 230 223 216 211 204 198 195 198 197 198 197 196 196 196 195 194 193 194 196 197 196 196 196 196 195 193 193 194 195 200 206 215 223 235
237 246 247 246 255 259 263 258 261 259 257 254 260 264 264 253 244 238 228 212 204 203 200 202 201 200 200 201 201 200 201 200 200 201 201 201 203 203 201 201 201 200 200 202 204 210 221 233 241
215 250 263 263 264 260 264 263 254 258 271 251 250 255 260 255 243 242 223 218 214 206 204 204 204 203 203 204 206 206 207 206 206 207 205 205 207 210 210 209 210 208 207 209 213 217 216 219 226
278 274 271 252 250 242 244 261 250 259 252 258 251 247 249 250 247 237 233 237 228 219 207 206 208 207 207 207 209 210 211 212 212 213 212 211 211 212 214 217 218 217 215 217 221 219 223 233 244
258 260 262 222 225 230 201 255 189 0 237 239 245 248 249 250 250 229 232 240 234 217 211 209 209 209 209 211 211 212 214 216 217 218 217 217 217 217 218 219 220 220 221 222 221 223 230 239 254
229 253 233 263 210 218 212 252 131 33 353 258 258 251 249 252 253 244 229 229 230 227 219 211 212 213 213 215 217 218 221 224 223 222 222 221 221 222 224 225 223 221 222 223 223 227 232 245 258
242 237 244 246 236 253 253 251 271 285 303 299 300 293 272 263 253 253 233 228 230 231 224 221 218 216 215 216 218 221 223 224 227 228 227 226 226 227 227 227 224 223 220 216 217 224 237 246 265
254 262 265 260 264 283 277 277 271 272 281 278 277 278 280 278 275 262 251 225 226 227 225 221 220 218 216 216 216 218 221 224 225 226 227 227 227 228 228 229 226 224 221 221 225 227 238 245 257
253 258 262 271 266 258 271 270 269 266 264 265 269 267 270 275 274 270 261 228 220 225 225 223 224 222 219 219 220 221 223 225 226 226 227 227 228 230 231 232 231 226 220 215 219 219 225 242 263
248 250 258 263 274 268 276 276 268 257 252 245 245 253 258 259 266 268 263 251 220 222 223 221 220 224 221 221 222 221 223 227 226 226 225 225 226 228 232 233 231 227 220 216 216 223 240 258 281
254 241 252 259 258 264 308 282 277 262 259 240 237 234 238 245 255 258 258 260 230 224 225 222 221 220 220 222 222 221 220 219 220 223 224 224 225 227 227 221 215 213 215 212 226 246 254 281 294
264 273 249 244 246 258 250 264 273 255 252 247 230 237 238 234 236 243 248 253 252 233 225 223 223 221 219 221 222 221 223 224 225 221 221 222 222 222 218 211 209 206 211 225 238 252 271 283 299
247 306 247 241 246 246 244 233 265 252 252 250 241 236 234 237 234 234 242 241 247 236 224 222 222 223 221 221 221 223 223 226 227 218 220 220 224 220 215 215 218 220 223 239 254 305 345 313 336
230 184 223 213 214 244 255 230 247 259 247 254 257 247 235 239 241 239 234 234 227 227 212 216 220 221 221 222 222 225 224 226 228 218 221 218 227 222 220 221 225 225 233 218 267 347 253 250 295
217 222 245 231 208 234 197 228 248 238 247 250 243 247 248 250 249 240 233 225 227 223 220 219 222 219 219 222 223 224 227 228 229 225 224 224 225 222 219 218 228 222 165 128 337 103 235 283 267
233 226 251 269 285 292 242 255 272 263 261 249 244 246 247 252 253 253 255 233 228 222 222 222 222 224 227 225 224 222 223 226 229 228 223 223 226 226 215 214 205 157 126 134 122 237 261 260 256
227 244 202 182 207 230 248 261 253 288 310 240 241 246 261 267 265 265 251 244 234 228 216 221 224 225 228 231 227 223 221 223 227 226 221 220 216 220 218 222 207 173 204 264 173 261 249 237 238
202 221 227 230 237 253 272 260 275 286 269 304 358 52 357 351 321 286 266 248 244 233 225 218 218 220 221 224 225 224 224 221 217 220 217 210 206 208 222 225 203 207 232 208 163 240 230 225 248
292 259 223 230 198 233 281 257 316 15 37 28 342 319 320 318 304 297 289 254 237 234 226 221 217 215 217 222 221 219 219 211 212 207 210 206 203 204 197 209 204 212 181 180 181 215 218 232 242